Showing default

MIDAS 6 (FTV 1169), 574

Orbit data source: Space-Track

MIDAS 6 (FTV 1169), 574 is a payload satellite owned by USAF SSD (US) in LEO that was launched on Thu, 09 May 1963 UTC via an ATLAS AGENA B launch vehicle from the Air Force Western Test Range (AFWTR). Payload-class satellites include a variety of spacecraft equipped with specific instruments for various scientific and technological missions. These include communications satellites like Starlink; space stations such as the ISS; scientific satellites like the Hubble; Earth observation satellites from companies like Planet Labs, Umbra, and HawkEye 360; GPS; miniature CubeSats for education and research; and military/defense satellites.

Loading next visibility...
Identifier
574, 1963-014A
Orbit
LEO
Country
Flag of USUS
Related business
Manufacturer
LMSC
Mission
Spacecraft
Bus & Motor
MIDAS, Unknown motor
Mass
~1,540 kg wet, ~840 kg dry
Launch date (UTC)
1963-05-09 (63 years ago)
Launch vehicle
ATLAS AGENA B
Launch site
Air Force Western Test Range (AFWTR)
Object type
Payload
Rocket body
Debris
Shape & HBR
CONE, 1.0 m
Radar Cross Section
Large (>1 m²)

Expand to show TLE details & history
Last TLE update: 14 hours ago

TLE from 14 hours ago
0 MIDAS 6 (FTV 1169)
1   574U 63014A   26237.21434066 -.00000009  00000-0 -55539-2 0  9996
2   574  87.3606 189.2861 0032079  45.7346 314.6134  8.65277204223755
Epoch: 2026-08-25T05:08Z
TLE epoch observation values (Epoch: 2026-08-25T05:08:39.033Z)
Latitude
0.00005°
Longitude
138.63856°
Altitude
3,623.764 km
Speed
6.321 km/s
True Right ascension
12h 37m 08s
True Declination
0° 00' 00"
Sunlit
Object was in daylight at epoch
Visualization orbit readout
Latitude
Unknown
Longitude
Unknown
Altitude
Unknown
Speed
Unknown
Apparent Right ascension
Unknown
Apparent Declination
Unknown
Sunlit
N/A
Visualization observer readout
Local Sidereal Time
09:59:02
Azimuth
Unknown
Elevation
Unknown
Doppler factor
Unknown
Orbital elements
Apogee altitude
3,674.074 km
Perigee altitude
3,609.788 km
Semi-major axis
10,020.068 km
Eccentricity
0.00321
Inclination
87.3606°
RAAN
189.2861°
Arg. of periapsis
45.7346°
True anomaly
314.35098°
Mean anomaly
314.6134°
Eccentric anomaly
314.48227°
Mean motion
2.1639 °/min
Orbital period
166.37 mins
BSTAR
-0.0055539

Documentation

Showing up to 5 results
|